SCP
0 0 0 0 0 0 0 0 0 0 0 0 0 0 0 0 0 0 0 0 0 0 0 0 0 0 0 0 0 0 0 0 0 0 0 0 0 0 0 0 0 0 0 0
0 0 0 0 0 0 0 0 0 0 0 0 0 0 0 0 0 0 0 0 0 0 0 0 0 0 0 0 0 0 0 0 0 0 0 0 0 0 0 0 0 0 0 0
0 0 0 0 0 0 0 0 0 0 0 0 0 0 0 0 0 0 0 0 0 0 0 0 0 0 0 0 0 0 0 0 0 0 0 0 0 0 0 0 0 0 0 0
0 0 0 0 0 0 0 0 0 0 0 0 0 0 0 0 0 0 0 0 0 0 0 0 0 0 0 0 0 0 0 0 0 0 0 0 0 0 0 0 0 0 0 0
0 0 0 0 0 0 0 0 0 0 0 0 0 0 0 0 0 0 0 0 0 0 0 0 0 0 0 0 0 0 0 0 0 0 0 0 0 0 0 0 0 0 0 0
0 0 0 0 0 0 0 0 0 0 0 0 0 0 0 0 0 0 0 0 0 0 0 0 0 0 0 0 0 0 0 0 0 0 0 0 0 0 0 0 0 0 0 0
0 0 0 0 0 0 0 0 0 0 0 0 0 0 0 0 0 0 0 0 0 0 0 0 0 0 0 0 0 0 0 0 0 0 0 0 0 0 0 0 0 0 0 0
0 0 0 0 0 0 0 0 0 0 0 0 0 0 0 0 0 0 0 0 0 0 0 0 0 0 0 0 0 0 0 0 0 0 0 0 0 0 0 0 0 0 0 0
0 0 0 0 0 0 0 0 0 0 0 0 0 0 0 0 0 0 0 0 0 0 0 0 0 0 0 0 0 0 0 0 0 0 0 0 0 0 0 0 0 0 0 0
0 0 0 0 0 0 0 0 0 0 0 0 0 0 0 0 0 0 0 0 0 0 0 0 0 0 0 0 0 0 0 0 0 0 0 0 0 0 0 0 0 0 0 0
0 0 0 0 0 0 0 0 0 0 0 0 0 0 0 0 0 0 0 0 0 0 0 0 0 0 0 0 0 0 0 0 0 0 0 0 0 0 0 0 0 0 0 0
0 0 0 0 0 0 0 0 0 0 0 0 0 0 0 0 0 0 0 0 0 0 0 0 0 0 0 0 0 0 0 0 0 0 0 0 0 0 0 0 0 0 0 0
0 0 0 0 0 0 0 0 0 0 0 0 0 0 0 0 0 0 0 0 0 0 0 0 0 0 0 0 0 0 0 0 0 0 0 0 0 0 0 0 0 0 0 0
0 0 0 0 0 0 0 0 0 0 0 0 0 0 0 0 0 0 0 0 0 0 0 0 0 0 0 0 0 0 0 0 0 0 0 0 0 0 0 0 0 0 0 0
0 0 0 0 0 0 0 0 0 0 0 0 0 0 0 0 0 0 0 0 0 0 0 0 0 0 0 0 0 0 0 0 0 0 0 0 0 0 0 0 0 0 0 0
0 0 0 0 0 0 0 0 0 0 0 0 0 0 0 0 0 0 0 0 0 0 0 0 0 0 0 0 0 0 0 0 0 0 0 0 0 0 0 0 0 0 0 0
0 0 0 0 0 0 0 0 0 0 0 0 0 0 0 0 0 0 0 0 0 0 0 0 0 0 0 0 0 0 0 0 0 0 0 0 0 0 0 0 0 0 0 0
0 0 0 0 0 0 0 0 0 0 0 0 0 0 0 0 0 0 0 0 0 0 0 0 0 0 0 0 0 0 0 0 0 0 0 0 0 0 0 0 0 0 0 0
0 0 0 0 0 0 0 0 0 0 0 0 0 0 0 0 0 0 0 0 0 0 0 0 0 0 0 0 0 0 0 0 0 0 0 0 0 0 0 0 0 0 0 0
0 0 0 0 0 0 0 0 0 0 0 0 0 0 0 0 0 0 0 0 0 0 0 0 0 0 0 0 0 0 0 0 0 0 0 0 0 0 0 0 0 0 0 0
0 0 0 0 0 0 0 0 0 0 0 0 0 0 0 0 0 0 0 0 0 0 0 0 0 0 0 0 0 0 0 0 0 0 0 0 0 0 0 0 0 0 0 0
0 0 0 0 0 0 0 0 0 0 0 0 0 0 0 0 0 0 0 0 0 0 0 0 0 0 0 0 0 0 0 0 0 0 0 0 0 0 0 0 0 0 0 0
0 0 0 0 0 0 0 0 0 0 0 0 0 0 0 0 0 0 0 0 0 0 0 0 0 0 0 0 0 0 0 0 0 0 0 0 0 0 0 0 0 0 0 0
0 0 0 0 0 0 0 0 0 0 0 0 0 0 0 0 0 0 0 0 0 0 0 0 0 0 0 0 0 0 0 0 0 0 0 0 0 0 0 0 0 0 0 0
0 0 0 0 0 0 0 0 0 0 0 0 0 0 0 0 0 0 0 0 0 0 0 0 0 0 0 0 0 0 0 0 0 0 0 0 0 0 0 0 0 0 0 0
0 0 0 0 0 0 0 0 0 0 0 0 0 0 0 0 0 0 0 0 0 0 0 0 0 0 0 0 0 0 0 0 0 0 0 0 0 0 0 0 0 0 0 0
Wind_Speed
3 5 4 3 4 3 3 5 4 2 2 3 4 3 3 2 3 4 4 4 4 3 3 3 4 4 5 5 5 5 6 5 5 4 4 3 3 3 2 2 2 2 2 1
5 4 2 2 2 4 6 7 5 2 2 4 4 4 3 3 3 4 4 4 3 3 2 2 3 4 5 5 5 5 5 6 6 4 4 3 3 3 2 2 2 2 2 2
4 1 1 4 4 6 6 7 5 4 3 5 5 5 4 3 3 2 3 3 3 2 2 2 2 3 4 5 5 4 5 6 6 6 4 3 3 3 3 3 2 2 2 2
3 2 4 5 4 6 5 3 6 6 7 5 6 6 3 3 3 2 2 2 2 1 1 1 1 1 2 3 4 5 5 5 5 6 5 5 4 4 4 3 3 3 3 3
2 3 4 5 3 5 3 3 6 7 8 8 7 8 3 3 3 2 1 1 1 1 1 1 0 0 1 2 2 4 5 5 5 6 6 6 5 4 3 3 4 4 3 3
2 1 3 3 2 3 3 4 5 7 8 9 6 8 3 2 2 1 1 1 1 1 1 1 2 1 1 1 2 2 4 4 5 5 6 7 7 6 5 5 4 4 3 3
4 4 2 2 4 4 6 6 5 6 7 5 2 6 3 1 0 1 1 0 1 1 0 1 2 2 2 1 1 2 3 4 5 5 6 6 7 7 6 6 5 5 3 4
5 4 2 1 4 4 5 7 6 5 5 3 4 6 2 2 1 1 1 1 1 0 1 1 1 1 1 0 1 2 3 4 4 5 5 5 6 5 4 5 4 5 4 4
4 3 2 1 2 5 5 5 5 7 7 7 5 3 3 4 3 2 2 1 1 0 1 1 1 1 1 0 1 2 3 3 4 5 5 4 4 5 4 5 5 4 4 4
4 4 2 1 4 1 4 3 5 6 6 8 6 7 4 5 4 3 2 1 0 0 1 1 1 1 1 1 1 2 2 3 4 4 4 3 4 4 4 4 4 4 4 4
4 6 3 4 5 4 4 5 6 6 6 8 7 3 1 2 3 3 2 1 1 1 1 1 1 1 1 1 1 1 2 3 3 3 4 4 4 4 4 4 4 4 4 4
3 5 5 4 2 4 6 6 7 7 7 8 8 4 1 2 2 2 2 2 2 1 1 1 1 1 1 1 1 1 1 2 2 3 4 4 4 5 4 4 4 4 4 4
2 5 6 5 6 5 4 4 6 7 7 9 10 4 2 2 3 3 3 3 2 2 2 1 1 1 1 1 2 1 1 1 2 2 3 4 4 5 5 4 4 4 4 5
5 7 8 7 4 3 5 6 7 9 9 10 11 10 6 5 5 4 4 3 3 3 3 2 1 1 1 2 2 2 2 1 1 2 3 4 4 4 4 4 4 4 4 5
5 7 7 7 6 7 9 9 9 11 12 12 11 11 9 7 6 5 4 4 3 3 3 3 2 2 2 2 2 2 2 2 2 2 3 4 4 4 4 4 4 4 4 4
4 6 6 7 6 7 10 11 11 11 11 12 12 12 7 6 5 5 5 4 4 4 4 4 3 3 3 2 3 3 3 2 3 3 3 3 4 4 4 4 4 4 3 3
4 6 6 7 4 8 10 9 10 9 9 10 12 9 6 6 6 6 5 5 4 4 4 4 4 4 4 3 3 3 3 3 3 3 3 4 4 4 4 4 4 3 4 4
7 6 5 5 6 10 2 1 4 7 9 8 9 8 6 6 5 5 5 5 5 4 4 5 5 5 4 4 3 3 3 3 3 4 4 4 4 4 4 4 4 4 4 4
7 7 5 5 7 8 5 3 4 6 7 6 7 7 6 3 5 5 4 4 5 5 5 5 5 4 4 3 3 3 3 3 3 3 4 4 4 4 4 5 4 4 4 4
5 7 7 7 8 7 2 1 2 5 7 2 4 5 4 4 6 4 2 4 5 4 4 4 4 3 3 3 3 3 3 3 3 4 4 4 4 5 5 5 5 4 4 4
6 7 9 10 9 7 1 2 3 6 3 2 4 5 4 5 5 4 3 4 3 3 3 3 3 3 3 3 3 3 3 3 3 3 3 3 4 5 5 4 4 4 4 4
7 7 8 8 9 6 3 3 5 5 5 4 5 5 4 5 4 4 3 3 3 2 2 2 2 2 2 2 3 3 3 3 2 2 3 3 3 3 3 4 4 4 4 4
7 6 4 6 5 3 4 5 4 5 6 5 5 5 4 5 5 4 4 4 3 3 2 2 2 2 2 2 3 3 3 3 3 2 2 2 3 3 4 4 4 4 4 4
6 5 7 8 8 7 7 7 6 6 6 6 6 6 5 6 5 5 4 4 4 3 3 3 3 3 2 2 3 3 3 3 3 3 3 3 3 2 3 3 3 4 4 4
6 6 7 10 8 7 7 7 6 6 6 6 6 6 6 5 5 5 5 4 4 3 3 3 3 3 3 3 3 2 2 3 3 3 3 3 3 3 3 3 2 4 3 3
9 9 9 8 7 6 6 5 7 7 7 7 6 6 6 5 5 5 5 4 4 4 3 3 4 4 3 3 3 2 3 3 3 2 2 2 2 2 2 3 2 1 3 2
Wind_Direction
184 203 203 208 236 257 240 235 239 255 246 247 240 251 252 237 236 239 232 226 222 220 215 204 199 203 199 198 199 192 195 187 184 184 192 188 187 187 180 188 187 182 199 196
191 206 232 231 216 224 233 239 246 242 216 255 250 260 257 247 233 240 247 241 235 235 219 196 200 201 205 200 201 194 196 192 191 192 197 196 192 195 181 184 189 189 195 201
222 92 183 200 205 227 241 252 257 265 261 235 251 250 227 208 211 221 239 244 245 244 250 221 206 210 208 207 203 198 197 195 194 192 193 188 183 190 181 183 188 201 207 208
218 173 202 210 219 239 245 260 256 251 252 248 250 268 224 201 198 214 231 230 242 269 280 302 261 217 214 211 204 202 197 197 192 189 192 195 198 196 197 191 182 194 204 212
194 192 215 227 242 246 267 272 252 253 259 259 246 258 232 203 215 210 218 226 262 293 310 358 3 225 207 203 200 205 199 197 191 190 188 199 205 207 198 194 191 198 198 212
240 216 252 267 264 233 217 225 226 233 246 248 249 253 246 209 231 203 195 49 21 22 29 48 61 67 75 132 174 192 202 201 197 195 195 203 206 207 203 203 202 203 201 210
211 192 192 237 219 189 224 247 240 228 226 241 227 250 247 109 110 246 253 272 37 38 46 39 46 61 67 99 188 196 196 203 202 203 207 209 211 211 212 212 211 211 210 213
231 206 163 236 264 253 234 252 266 273 271 269 228 242 197 139 197 225 197 163 129 38 19 38 37 45 58 96 204 209 198 203 202 206 211 212 212 214 218 220 220 217 217 219
254 223 131 279 281 259 231 236 275 278 275 268 238 220 210 198 212 206 173 135 111 33 15 12 7 9 27 12 260 234 209 201 204 206 207 203 211 216 220 222 219 220 221 221
285 262 207 203 209 226 276 242 233 250 265 262 254 246 228 197 210 208 196 180 258 343 19 21 7 345 342 328 276 235 211 204 202 205 205 198 207 211 212 216 220 220 222 221
269 257 225 214 236 248 216 220 237 251 264 273 273 257 18 224 208 224 227 225 245 273 336 8 350 329 325 340 286 230 216 214 206 206 206 202 205 210 213 212 220 221 220 218
256 268 254 244 261 288 262 250 247 256 252 257 272 272 98 227 236 247 253 263 263 259 269 288 313 310 312 345 321 272 229 220 219 219 210 201 205 205 212 213 219 222 219 221
228 250 250 218 194 195 226 238 253 267 262 254 260 260 142 237 264 268 264 254 255 258 261 256 283 288 306 313 305 288 274 249 228 219 216 210 206 208 215 220 216 216 219 219
263 248 257 272 303 285 256 250 251 253 256 258 259 272 266 264 270 274 269 258 259 268 267 271 283 279 302 302 299 297 298 284 249 229 222 217 213 213 218 222 220 222 224 223
248 253 255 272 281 273 270 263 249 249 261 267 271 271 279 278 272 271 264 253 259 266 270 271 277 286 283 298 303 301 292 279 258 241 232 223 217 214 215 219 218 219 226 232
243 252 254 255 258 264 267 262 253 250 255 259 265 268 277 281 273 263 258 247 252 263 269 274 277 282 280 290 289 284 282 273 265 250 243 227 220 215 214 215 215 216 217 228
222 237 252 257 257 268 260 253 243 239 244 252 259 268 269 265 263 264 259 249 258 274 281 277 277 278 281 276 278 280 281 273 268 262 254 237 224 217 215 210 206 212 218 224
230 234 249 263 254 251 284 17 259 255 258 256 264 273 271 276 280 273 263 260 275 288 290 288 286 283 283 280 276 274 270 263 260 262 259 251 230 220 217 214 211 219 225 225
232 227 235 245 257 268 260 239 239 255 265 262 263 270 266 275 275 262 257 270 287 296 298 298 294 287 283 281 271 263 263 262 256 255 257 253 239 223 221 220 218 222 226 227
200 223 235 239 255 264 283 109 272 268 257 252 276 278 259 250 264 280 284 285 292 299 306 304 296 289 283 286 275 261 262 263 268 272 267 260 248 227 223 224 222 224 228 229
194 208 228 241 253 263 314 130 217 248 312 352 289 283 255 259 298 330 313 294 297 302 306 303 294 288 288 283 269 263 270 279 286 285 280 268 256 237 225 221 218 218 227 235
223 221 225 235 245 249 133 179 240 303 339 306 291 284 270 283 301 304 297 287 283 285 291 292 286 298 300 282 273 275 285 298 296 285 276 267 258 243 223 217 219 221 221 229
233 243 250 242 261 316 218 242 282 300 293 294 289 289 278 276 281 281 280 279 272 269 272 273 271 289 297 294 291 294 303 298 287 276 275 270 260 247 229 219 215 219 222 224
232 249 250 255 257 266 259 257 268 277 285 290 285 279 273 274 275 273 274 277 275 270 270 272 271 276 287 294 288 291 293 283 277 278 274 264 252 248 235 225 222 220 223 227
245 224 242 254 264 267 253 252 263 275 283 284 280 270 270 269 268 269 272 272 272 273 271 268 268 271 278 282 285 290 281 272 271 270 267 262 252 249 251 236 235 237 239 248
225 226 235 252 248 256 267 270 266 266 271 272 271 270 264 256 257 262 267 268 266 266 265 265 268 271 275 277 282 281 270 264 261 265 269 266 253 241 243 242 222 208 240 268